Weather in Vesele

Ukraine / Dnipropetrovsk Region     48°13′57″N   36°36′38″E
temp.,
°C
wind,
m/s
gust,
m/s
humid.,
%
clouds,
%
prec.,
mm/h
press.,
hPa
HPBL,
m
26 october, tue
tue2600:00+1e22510 0.0 103410
03:000ese11540 0.0 103410
06:00−1se11590 0.0 103510
09:00+3se23465 0.0 1034175
12:00+7sse33305 0.0 1033793
15:00+9s22235 0.0 10321014
18:00+5sse22305 0.0 103111
21:00+3sse33365 0.0 103136
27 october, wed
wed2700:00+2s34475 0.0 103147
03:00+1sse34565 0.0 103041
06:000sse33575 0.0 103032
09:00+3s34480 0.0 1030170
12:00+9s34290 0.0 1027683
15:00+12wsw34220 0.0 10251020
18:00+7wsw33320 0.0 102515
21:00+5w33480 0.0 102524
28 october, thu
thu2800:00+4wsw3354100 0.0 102531
03:00+4w3365100 0.0 102527
06:00+4w3380100 0.0 102545
09:00+7wsw357299 0.0 1025161
12:00+12w5648100 0.0 1024674
15:00+15w684159 0.0 10221181
18:00+11wsw485667 0.0 1021120
21:00+11wsw5115996 0.0 1021276
29 october, fri
fri2900:00+11wnw4968100 0.0 1021344
03:00+11nw497987 0.0 1022419
06:00+8nnw37935 0.0 1024131
09:00+10nnw37774 0.0 1025241
12:00+15nne56446 0.0 10261524
15:00+15ne554619 0.0 10271435
18:00+8ene47713 0.0 1030163
21:00+6e38741 0.0 1031145
30 october, sat
sat3000:00+5e36740 0.0 1033101
03:00+4e35751 0.0 103475
06:00+3ese34765 0.0 103549
09:00+5ese46621 0.0 1036226
12:00+10ese45371 0.0 1035740
15:00+12ese44270 0.0 1034856
18:00+7ese34380 0.0 103547
21:00+5se36430 0.0 103585